User: anonymous   Login
Location: Sceptre
(50.8619°N, 109.2670°W)
Time: 23:29:29
(UTC+00:00)
Language:

XW-2B - Orbit

View from above orbital plane
View from above orbital plane
View from above satellite
View from above satellite

Ground track
Ground track

The orbit data is extracted from the following two-line orbital elements,

1 40911U 15049N   22178.59286477  .00005109  00000-0  24188-3 0  9993
2 40911  97.4897 182.5108 0011926 328.3664 148.5881 15.19730591374399
Epoch (UTC): 27 June 2022 14:13:43
Eccentricity: 0.0011926
inclination: 97.4897°
perigee height: 498 km
apogee height: 515 km
right ascension of ascending node: 182.5108°
argument of perigee: 328.3664°
revolutions per day: 15.19730591
mean anomaly at epoch: 148.5881°
orbit number at epoch: 37439

The dashed part of the orbit path shows where the satellite is in the earth's shadow,  

DLR